Date_and_time,latitude,longitude,wind_speed,RelWindDirFrom,WindDirFrom,air_pressure,air_temperature,relative_humidity,Temp,platform_speed_wrt_ground,air_pressure_at_mean_sea_level,platform_orientation
2018-06-27 23:40,50.9117233333333,-96.9825316666667,5.3,6.7,87,978.57,23.9,63,21.88,0.0,1003.91,299.5
2018-06-27 23:50,50.91173,-96.9825183333333,5.3,6.5,99,978.59,23.6,65,21.89,0.0,1003.96,299.5
2018-06-28 00:00,50.9117283333333,-96.982515,4.2,6.2,103,978.59,23.2,67,21.88,0.0,1004.00,90.0
2018-06-28 00:10,50.911725,-96.9825283333333,5.6,6.9,104,978.55,22.9,68,21.87,0.0,1003.94,90.0
2018-06-28 00:20,50.9117333333333,-96.982525,8.1,10.3,130,978.51,22.5,66,21.86,0.0,1003.93,90.0
2018-06-28 00:30,50.9117266666667,-96.98252,7.2,8.3,134,978.52,22.6,65,21.88,0.0,1003.95,90.0
2018-06-28 00:40,50.9117166666667,-96.9825366666667,8.2,9.8,143,978.53,22.8,64,21.93,0.0,1003.96,90.0
2018-06-28 00:50,50.91172,-96.9825283333333,7.6,9.8,143,978.48,22.8,62,22.01,0.0,1003.91,90.0
2018-06-28 01:00,50.9117183333333,-96.9825316666667,6.4,9.5,141,978.47,23.3,58,22.07,0.0,1003.86,90.0
2018-06-28 01:10,50.9117233333333,-96.9825283333333,8.3,10.7,137,978.48,22.7,70,22.10,0.0,1003.90,90.0
2018-06-28 01:20,50.911725,-96.9825283333333,6.7,9.5,141,978.48,22.9,63,22.12,0.0,1003.88,90.0
2018-06-28 01:30,50.911695,-96.9825216666667,5.7,7.8,149,978.55,23.3,62,22.15,0.0,1003.93,90.0
2018-06-28 01:40,50.9117266666667,-96.98252,4.3,6.9,160,978.56,23.4,59,22.21,0.0,1003.95,90.0
2018-06-28 01:50,50.911735,-96.98252,2.5,4.7,185,978.60,23.6,60,22.25,0.0,1003.99,90.0
2018-06-28 02:00,50.9117333333333,-96.982525,2.1,3.4,220,978.64,23.9,50,22.26,0.0,1004.04,90.0
2018-06-28 02:10,50.9117316666667,-96.9825283333333,2.3,3.9,238,978.67,23.9,47,22.25,0.0,1004.09,90.0
2018-06-28 02:20,50.91173,-96.9825266666667,2.8,5.0,227,978.68,23.5,42,22.20,0.0,1004.11,90.0
2018-06-28 02:30,50.9117283333333,-96.9825283333333,3.1,5.0,223,978.68,23.2,38,22.13,0.0,1004.12,90.0
2018-06-28 02:40,50.9117283333333,-96.9825283333333,3.5,5.1,218,978.73,23.0,36,22.05,0.0,1004.18,90.0
2018-06-28 02:50,50.9117283333333,-96.98253,2.9,6.7,228,978.78,22.9,36,21.97,0.0,1004.22,90.0
2018-06-28 03:00,50.911735,-96.98254,6.2,7.9,296,978.90,22.3,39,21.85,0.0,1004.39,291.8
2018-06-28 03:10,50.9117333333333,-96.9825316666667,4.6,6.2,281,979.03,22.8,36,21.78,0.0,1004.49,291.8
2018-06-28 03:20,50.9117433333333,-96.9825333333333,4.4,7.2,259,979.11,22.1,38,21.69,0.0,1004.58,291.8
2018-06-28 03:30,50.911735,-96.98253,3.2,4.8,241,979.09,22.1,37,21.61,0.0,1004.56,291.8
2018-06-28 03:40,50.911735,-96.9825316666667,2.5,3.7,243,979.10,21.5,40,21.50,0.0,1004.58,291.8
2018-06-28 03:50,50.9117333333333,-96.9825316666667,3.8,5.3,284,979.19,20.3,46,21.33,0.0,1004.71,291.8
2018-06-28 04:00,50.911735,-96.9825316666667,5.6,6.7,288,979.22,19.5,48,21.08,0.0,1004.78,360.0
2018-06-28 04:10,50.9117416666667,-96.9825016666667,4.3,6.9,302,979.22,19.2,53,20.85,0.0,1004.81,360.0
2018-06-28 04:20,50.9117066666667,-96.9825333333333,4.7,7.7,304,979.27,19.0,56,20.64,0.0,1004.89,360.0
2018-06-28 04:30,50.9117366666667,-96.9825316666667,4.0,5.8,302,979.30,18.6,58,20.50,0.0,1004.95,360.0
2018-06-28 04:40,50.9117283333333,-96.98252,4.9,7.0,303,979.35,18.3,60,20.39,0.0,1005.01,360.0
2018-06-28 04:50,50.91173,-96.98252,4.9,7.1,299,979.44,17.9,62,20.26,0.0,1005.15,360.0
2018-06-28 05:00,50.91173,-96.9825183333333,6.4,7.8,286,979.54,17.5,64,20.11,0.0,1005.24,90.0
2018-06-28 05:10,50.91173,-96.9825216666667,5.1,6.5,278,979.57,17.4,64,19.98,0.0,1005.31,90.0
2018-06-28 05:20,50.91173,-96.9825233333333,5.4,7.1,287,979.58,17.2,65,19.89,0.0,1005.33,90.0
2018-06-28 05:30,50.9117316666667,-96.982525,5.4,6.5,289,979.59,17.0,67,19.78,0.0,1005.38,90.0
2018-06-28 05:40,50.9117316666667,-96.9825266666667,4.7,5.8,278,979.60,17.1,66,19.69,0.0,1005.44,90.0
2018-06-28 05:50,50.9117316666667,-96.9825266666667,4.5,6.2,277,979.60,16.9,67,19.62,0.0,1005.49,90.0
2018-06-28 06:00,50.9117316666667,-96.982525,5.9,7.0,274,979.58,16.6,69,19.51,0.0,1005.50,170.2
2018-06-28 06:10,50.9117266666667,-96.9825366666667,5.1,6.4,273,979.58,16.5,70,19.41,0.0,1005.50,170.2
2018-06-28 06:20,50.911725,-96.9825383333333,5.6,6.4,277,979.60,16.4,71,19.32,0.0,1005.55,170.2
2018-06-28 06:30,50.911725,-96.98253,5.9,6.8,279,979.61,16.2,72,19.19,0.0,1005.58,170.2
2018-06-28 06:40,50.9117266666667,-96.9825283333333,6.1,6.8,283,979.67,16.0,74,19.05,0.0,1005.67,170.2
2018-06-28 06:50,50.911725,-96.9825283333333,6.0,6.7,285,979.65,15.8,74,18.91,0.0,1005.67,170.2
2018-06-28 07:00,50.9117266666667,-96.982525,5.2,5.9,283,979.68,15.8,75,18.82,0.0,1005.71,142.5
2018-06-28 07:10,50.9117383333333,-96.9825266666667,4.1,5.9,278,979.72,15.7,74,18.80,0.0,1005.77,142.5
2018-06-28 07:20,50.9117316666667,-96.9825283333333,4.5,5.9,275,979.79,15.5,75,18.80,0.0,1005.85,142.5
2018-06-28 07:30,50.9117283333333,-96.9825266666667,4.5,6.2,275,979.79,15.4,76,18.75,0.0,1005.86,142.5
2018-06-28 07:40,50.91173,-96.98253,4.4,5.3,285,979.78,15.1,78,18.69,0.0,1005.87,142.5
2018-06-28 07:50,50.91173,-96.98253,4.5,5.2,282,979.80,15.1,78,18.66,0.0,1005.90,142.5
2018-06-28 08:00,50.9117316666667,-96.98253,4.1,5.1,274,979.78,15.5,75,18.61,0.0,1005.87,270.0
2018-06-28 08:10,50.9117333333333,-96.9825316666667,4.6,5.6,279,979.77,15.9,73,18.53,0.0,1005.85,270.0
2018-06-28 08:20,50.9117316666667,-96.9825316666667,4.4,6.0,277,979.80,15.3,77,18.41,0.0,1005.92,270.0
2018-06-28 08:30,50.91173,-96.9825316666667,4.3,5.2,268,979.77,15.2,77,18.32,0.0,1005.90,270.0
2018-06-28 08:40,50.9117316666667,-96.9825316666667,4.6,6.6,264,979.78,15.1,77,18.25,0.0,1005.91,270.0
2018-06-28 08:50,50.9117316666667,-96.98253,5.3,7.8,265,979.79,14.7,80,18.17,0.0,1005.95,270.0
2018-06-28 09:00,50.91173,-96.98253,5.2,6.5,259,979.83,14.7,79,18.07,0.0,1005.99,0.0
2018-06-28 09:10,50.9117033333333,-96.9825333333333,5.8,7.9,252,979.77,15.3,75,18.03,0.0,1005.91,0.0
2018-06-28 09:20,50.9117216666667,-96.982535,6.0,7.5,254,979.75,16.1,69,18.04,0.0,1005.86,0.0
2018-06-28 09:30,50.91172,-96.982535,6.7,8.6,248,979.77,16.2,69,18.04,0.0,1005.89,0.0
2018-06-28 09:40,50.911725,-96.9825233333333,6.7,9.5,249,979.77,16.1,70,18.04,0.0,1005.90,0.0
2018-06-28 09:50,50.9116983333333,-96.982515,7.4,9.6,244,979.80,16.0,69,18.03,0.0,1005.91,0.0
2018-06-28 10:00,50.9117433333333,-96.9825233333333,7.6,9.9,241,979.86,16.1,68,18.00,0.0,1005.96,40.9
2018-06-28 10:10,50.9117233333333,-96.9825266666667,7.5,9.3,243,979.92,15.6,70,17.94,0.0,1006.06,40.9
2018-06-28 10:20,50.911725,-96.9825266666667,6.8,9.4,244,979.91,15.8,66,17.89,0.0,1006.04,40.9
2018-06-28 10:30,50.9117233333333,-96.9825266666667,7.2,8.9,243,979.87,16.1,64,17.86,0.0,1006.00,40.9
2018-06-28 10:40,50.9117433333333,-96.9825216666667,7.0,8.6,242,979.88,16.0,66,17.85,0.0,1006.03,40.9
2018-06-28 10:50,50.9117366666667,-96.9825233333333,7.4,9.1,242,979.86,16.1,67,17.83,0.0,1006.01,40.9
2018-06-28 11:00,50.911735,-96.9825233333333,7.0,9.4,242,979.84,16.5,67,17.83,0.0,1005.94,9.8
2018-06-28 11:10,50.9117333333333,-96.9825216666667,6.1,7.6,242,979.78,17.2,60,17.87,0.0,1005.81,9.8
2018-06-28 11:20,50.9117333333333,-96.9825216666667,6.0,7.1,244,979.73,17.7,59,17.96,0.0,1005.73,9.8
2018-06-28 11:30,50.9117333333333,-96.98252,5.9,8.0,240,979.76,17.6,63,18.04,0.0,1005.77,9.8
2018-06-28 11:40,50.9117333333333,-96.9825216666667,6.0,8.5,233,979.85,17.1,68,18.11,0.0,1005.89,9.8
2018-06-28 11:50,50.9117316666667,-96.9825233333333,5.9,8.2,235,979.92,17.0,68,18.12,0.0,1005.96,9.8
2018-06-28 12:00,50.9117266666667,-96.982535,5.9,8.1,236,979.94,17.6,63,18.16,0.0,1005.98,270.0
2018-06-28 12:10,50.9117383333333,-96.982525,5.6,7.6,238,979.92,18.4,59,18.25,0.0,1005.91,270.0
2018-06-28 12:20,50.9117366666667,-96.9825116666667,5.0,7.1,235,979.95,18.7,61,18.37,0.0,1005.91,270.0
2018-06-28 12:30,50.9117316666667,-96.982515,4.9,7.4,237,979.92,18.7,68,18.51,0.0,1005.89,270.0
2018-06-28 12:40,50.91173,-96.9825183333333,4.7,7.1,235,979.94,19.0,73,18.65,0.0,1005.89,270.0
2018-06-28 12:50,50.911745,-96.982525,4.8,7.0,238,979.94,19.7,72,18.80,0.0,1005.85,270.0
2018-06-28 13:00,50.9117366666667,-96.982525,4.1,6.7,235,979.93,20.5,69,18.97,0.0,1005.77,227.9
2018-06-28 13:10,50.911735,-96.9825283333333,3.6,6.2,229,980.00,21.1,68,19.18,0.0,1005.79,227.9
2018-06-28 13:20,50.9117333333333,-96.982525,3.9,7.5,230,980.01,21.5,65,19.38,0.0,1005.78,227.9
2018-06-28 13:30,50.9117266666667,-96.98253,3.8,6.5,231,979.94,22.1,60,19.58,0.0,1005.71,227.9
2018-06-28 13:40,50.9117266666667,-96.9825283333333,3.1,5.5,242,979.91,22.6,57,19.77,0.0,1005.66,227.9
2018-06-28 13:50,50.9117233333333,-96.982525,3.0,5.4,230,979.85,22.9,55,19.93,0.0,1005.56,227.9
2018-06-28 14:00,50.9117233333333,-96.9825266666667,2.4,5.0,210,979.83,23.2,56,20.06,0.0,1005.49,192.9
2018-06-28 14:10,50.9117233333333,-96.9825266666667,5.3,8.0,183,979.84,22.9,54,20.17,0.0,1005.50,192.9
2018-06-28 14:20,50.9117233333333,-96.9825266666667,5.5,8.3,173,979.84,22.1,63,20.28,0.0,1005.53,192.9
2018-06-28 14:30,50.9117216666667,-96.9825266666667,5.9,7.6,176,979.83,21.9,61,20.30,0.0,1005.52,192.9
2018-06-28 14:40,50.9117216666667,-96.9825283333333,5.4,7.2,157,979.79,21.9,66,20.31,0.0,1005.45,192.9
2018-06-28 14:50,50.9117216666667,-96.9825266666667,5.9,6.8,142,979.73,21.6,68,20.30,0.0,1005.36,192.9
2018-06-28 15:00,50.9117216666667,-96.9825283333333,7.0,9.3,141,979.65,21.5,70,20.27,0.0,1005.26,360.0
2018-06-28 15:10,50.9117216666667,-96.9825283333333,8.8,10.0,139,979.62,20.4,88,20.24,0.0,1005.26,360.0
2018-06-28 15:20,50.9117166666667,-96.9825433333333,8.5,11.3,139,979.68,20.3,88,20.20,0.0,1005.31,360.0
2018-06-28 15:30,50.9117166666667,-96.9825416666667,9.7,12.0,140,979.71,20.4,86,20.17,0.0,1005.30,360.0
2018-06-28 15:40,50.9117166666667,-96.9825416666667,8.4,10.4,138,979.68,20.5,82,20.16,0.0,1005.26,360.0
2018-06-28 15:50,50.9117216666667,-96.98253,8.3,10.2,139,979.75,20.7,84,20.17,0.0,1005.30,360.0
2018-06-28 16:00,50.9117133333333,-96.9825016666667,8.9,10.5,137,979.76,20.8,82,20.18,0.0,1005.32,156.8
2018-06-28 16:10,50.911715,-96.98252,8.8,10.8,135,979.67,20.9,84,20.21,0.0,1005.26,156.8
2018-06-28 16:20,50.91172,-96.9825233333333,9.3,11.8,137,979.55,21.0,82,20.24,0.0,1005.15,156.8
2018-06-28 16:30,50.9117533333333,-96.9825433333333,8.9,11.0,137,979.57,21.1,82,20.28,0.0,1005.16,156.8
2018-06-28 16:40,50.9117266666667,-96.982525,8.6,10.5,133,979.56,21.0,82,20.31,0.0,1005.17,156.8
2018-06-28 16:50,50.9117383333333,-96.9825633333333,7.4,10.2,134,979.57,21.2,80,20.34,0.0,1005.17,156.8
2018-06-28 17:00,50.9116983333333,-96.9825,9.0,11.9,143,979.50,21.5,77,20.38,0.0,1005.14,147.0
2018-06-28 17:10,50.9117216666667,-96.9825183333333,11.2,14.1,140,979.39,21.3,77,20.46,0.0,1005.04,147.0
2018-06-28 17:20,50.9117333333333,-96.9825516666667,11.2,13.2,141,979.47,21.4,79,20.55,0.0,1005.11,147.0
2018-06-28 17:30,50.9116916666667,-96.982505,12.8,14.5,137,979.48,21.3,78,20.62,0.0,1005.12,147.0
2018-06-28 17:40,50.9117216666667,-96.9825266666667,11.0,13.3,136,979.52,21.3,76,20.67,0.0,1005.15,147.0
2018-06-28 17:50,50.9117133333333,-96.982515,10.8,14.7,143,979.54,21.7,70,20.72,0.0,1005.15,147.0
2018-06-28 18:00,50.9117266666667,-96.98252,12.8,14.9,142,979.45,21.8,67,20.81,0.0,1005.05,360.0
2018-06-28 18:10,50.911725,-96.9825416666667,11.7,15.7,141,979.45,21.8,72,20.89,0.0,1005.05,360.0
2018-06-28 18:20,50.9117233333333,-96.9825283333333,10.6,13.6,145,979.51,21.9,66,20.96,0.0,1005.10,360.0
2018-06-28 18:30,50.9117283333333,-96.9825233333333,11.8,14.7,137,979.44,22.1,62,21.08,0.0,1005.02,360.0
2018-06-28 18:40,50.9117083333333,-96.982515,10.6,13.4,137,979.42,22.1,64,21.12,0.0,1004.99,360.0
2018-06-28 18:50,50.9117266666667,-96.98252,10.9,12.8,136,979.40,22.3,62,21.15,0.0,1004.95,360.0
2018-06-28 19:00,50.9117266666667,-96.982525,10.5,12.0,130,979.27,22.4,59,21.19,0.0,1004.82,333.3
2018-06-28 19:10,50.911725,-96.98252,8.9,12.5,132,979.29,22.9,59,21.24,0.0,1004.82,333.3
2018-06-28 19:20,50.911725,-96.9825233333333,9.6,11.6,141,979.29,22.5,67,21.32,0.0,1004.85,333.3
2018-06-28 19:30,50.9117266666667,-96.982525,11.0,12.8,139,979.22,22.4,69,21.44,0.0,1004.78,333.3
2018-06-28 19:40,50.9117383333333,-96.9825183333333,10.2,12.5,139,979.34,22.5,65,21.47,0.0,1004.87,333.3
2018-06-28 19:50,50.9117433333333,-96.98253,7.9,11.7,140,979.33,22.9,61,21.55,0.0,1004.85,333.3
2018-06-28 20:00,50.9117416666667,-96.9825283333333,5.3,8.1,123,979.33,23.4,61,21.59,0.0,1004.81,335.5
2018-06-28 20:10,50.91175,-96.9825533333333,11.4,15.4,137,979.15,23.2,59,21.60,0.0,1004.63,335.5
2018-06-28 20:20,50.9117383333333,-96.9825316666667,10.0,13.8,129,979.19,24.1,44,21.70,0.0,1004.63,335.5
2018-06-28 20:30,50.9117416666667,-96.9825333333333,8.1,11.1,126,979.22,23.9,54,21.78,0.0,1004.67,335.5
2018-06-28 20:40,50.9117416666667,-96.98253,9.1,11.8,119,979.16,23.5,59,21.79,0.0,1004.62,335.5
2018-06-28 20:50,50.91174,-96.9825133333333,8.7,11.5,122,979.12,23.5,58,21.77,0.0,1004.57,335.5
2018-06-28 21:00,50.911745,-96.9825233333333,9.4,12.4,134,979.13,23.3,61,21.79,0.0,1004.58,37.5
2018-06-28 21:10,50.9117416666667,-96.9825216666667,8.3,13.5,130,979.07,23.5,57,21.83,0.0,1004.52,37.5
2018-06-28 21:20,50.9117216666667,-96.982505,9.5,11.7,140,979.19,23.6,57,21.91,0.0,1004.64,37.5
2018-06-28 21:30,50.91173,-96.9825383333333,7.8,11.4,141,979.28,23.5,60,22.07,0.0,1004.73,37.5
2018-06-28 21:40,50.9117283333333,-96.9825333333333,6.6,14.3,129,979.23,23.4,60,22.14,0.0,1004.67,37.5
2018-06-28 21:50,50.911725,-96.9825316666667,10.3,13.0,133,979.17,23.9,58,22.16,0.0,1004.56,37.5
2018-06-28 22:00,50.9117116666667,-96.9825216666667,8.5,10.7,128,979.19,23.4,60,22.17,0.0,1004.62,360.0
2018-06-28 22:10,50.9117333333333,-96.9825266666667,7.5,11.4,124,979.20,23.6,61,22.16,0.0,1004.58,360.0
2018-06-28 22:20,50.9117266666667,-96.9825566666667,7.9,12.4,128,979.21,23.4,60,22.20,0.0,1004.60,360.0
2018-06-28 22:30,50.9117283333333,-96.9825533333333,8.4,11.6,131,979.19,23.8,55,22.22,0.0,1004.58,360.0
2018-06-28 22:40,50.9117033333333,-96.9825,9.4,11.1,138,979.18,23.6,60,22.27,0.0,1004.58,360.0
2018-06-28 22:50,50.9117266666667,-96.9825216666667,9.9,12.8,133,979.16,23.6,57,22.33,0.0,1004.57,360.0
2018-06-28 23:00,50.911735,-96.9825216666667,8.6,12.2,140,979.22,23.9,57,22.38,0.0,1004.61,132.1
2018-06-28 23:10,50.9117283333333,-96.9825283333333,7.6,9.3,135,979.19,23.6,61,22.48,0.0,1004.59,132.1
2018-06-28 23:20,50.9117283333333,-96.982525,7.7,9.9,132,979.22,23.6,62,22.49,0.0,1004.62,132.1
2018-06-28 23:30,50.9117283333333,-96.9825283333333,8.5,10.2,132,979.16,23.7,59,22.48,0.0,1004.56,132.1
2018-06-28 23:40,50.911735,-96.9825666666667,8.6,10.2,138,979.10,23.7,60,22.52,0.0,1004.47,132.1
2018-06-28 23:50,50.9117366666667,-96.982515,7.2,8.6,152,979.10,23.4,68,22.60,0.0,1004.51,132.1
